When you browse on this site, cookies collect data to enhance your experience and personalize the content and advertising you see.
Visit our Privacy Policy to learn more. By continuing to use the site, you agree to this use of cookies and data.
  • en France
  • Liste des pays
  • À 7 jours
  • Température de l'eau
  • Carte météo
  • Widgets météo
  • user-avatar
    Se connecter

    Météo par heure à Plaszewko

    Ce jour, 15 Octobre, Mardi

    Heure Température Précipitation Vent Pression Humidité
    00:00 +10°C° 0 mm 2 m/s 758 mmHg 86%
    01:00 +10°C° 0 mm 3 m/s 758 mmHg 85%
    02:00 +10°C° 0 mm 3 m/s 758 mmHg 83%
    03:00 +10°C° 0 mm 3 m/s 758 mmHg 82%
    04:00 +10°C° 0 mm 4 m/s 757 mmHg 81%
    05:00 +11°C° 0 mm 4 m/s 757 mmHg 81%
    06:00 +10°C° 0 mm 5 m/s 757 mmHg 81%
    07:00 +10°C° 0 mm 5 m/s 757 mmHg 81%
    08:00 +13°C° 0 mm 5 m/s 756 mmHg 78%
    09:00 +14°C° 0 mm 5 m/s 756 mmHg 76%
    10:00 +16°C° 0 mm 5 m/s 755 mmHg 74%
    11:00 +17°C° 0 mm 5 m/s 755 mmHg 71%
    12:00 +19°C° 0 mm 5 m/s 754 mmHg 69%
    13:00 +20°C° 0 mm 5 m/s 754 mmHg 66%
    14:00 +20°C° 0 mm 4 m/s 753 mmHg 68%
    15:00 +19°C° 0 mm 3 m/s 753 mmHg 70%
    16:00 +19°C° 0 mm 3 m/s 752 mmHg 72%
    17:00 +18°C° 0 mm 3 m/s 752 mmHg 75%
    18:00 +17°C° 0 mm 3 m/s 752 mmHg 78%
    19:00 +14°C° 0 mm 3 m/s 752 mmHg 81%
    20:00 +14°C° 0 mm 3 m/s 751 mmHg 82%
    21:00 +14°C° 0 mm 3 m/s 751 mmHg 83%
    22:00 +14°C° 0 mm 3 m/s 751 mmHg 85%
    23:00 +14°C° 0 mm 3 m/s 751 mmHg 84%

    Demain, 16 Octobre, Mercredi

    Heure Température Précipitation Vent Pression Humidité
    00:00 +14°C° 0 mm 3 m/s 751 mmHg 84%
    01:00 +13°C° 0 mm 4 m/s 751 mmHg 83%
    02:00 +13°C° 0 mm 4 m/s 750 mmHg 83%
    03:00 +13°C° 0 mm 4 m/s 750 mmHg 82%
    04:00 +13°C° 0 mm 4 m/s 749 mmHg 82%
    05:00 +13°C° 0 mm 3 m/s 749 mmHg 84%
    06:00 +13°C° 0 mm 3 m/s 749 mmHg 85%
    07:00 +12°C° 0 mm 3 m/s 749 mmHg 86%
    08:00 +13°C° 0 mm 4 m/s 749 mmHg 85%
    09:00 +14°C° 0 mm 5 m/s 749 mmHg 83%
    10:00 +15°C° 0 mm 5 m/s 749 mmHg 81%
    11:00 +14°C° 0.1 mm 6 m/s 750 mmHg 80%
    12:00 +13°C° 0.1 mm 8 m/s 750 mmHg 79%
    13:00 +12°C° 0.1 mm 9 m/s 750 mmHg 78%
    14:00 +12°C° 0 mm 8 m/s 751 mmHg 75%
    15:00 +12°C° 0 mm 8 m/s 751 mmHg 72%
    16:00 +12°C° 0 mm 7 m/s 751 mmHg 69%
    17:00 +11°C° 0.3 mm 7 m/s 751 mmHg 72%
    18:00 +11°C° 0.3 mm 8 m/s 751 mmHg 76%
    19:00 +11°C° 0.3 mm 8 m/s 750 mmHg 79%
    20:00 +11°C° 2.6 mm 9 m/s 750 mmHg 83%
    21:00 +11°C° 2.6 mm 9 m/s 750 mmHg 87%
    22:00 +11°C° 2.6 mm 10 m/s 750 mmHg 91%
    23:00 +11°C° 3.2 mm 10 m/s 750 mmHg 91%

    Après-demain, 17 Octobre, Jeudi

    Heure Température Précipitation Vent Pression Humidité
    00:00 +11°C° 3.2 mm 10 m/s 750 mmHg 91%
    01:00 +12°C° 3.2 mm 10 m/s 751 mmHg 92%
    02:00 +12°C° 0.9 mm 9 m/s 751 mmHg 91%
    03:00 +12°C° 0.9 mm 9 m/s 752 mmHg 91%
    04:00 +11°C° 0.9 mm 8 m/s 753 mmHg 91%
    05:00 +11°C° 0.2 mm 8 m/s 753 mmHg 91%
    06:00 +11°C° 0.2 mm 7 m/s 754 mmHg 91%
    07:00 +11°C° 0.2 mm 7 m/s 755 mmHg 91%
    08:00 +11°C° 0 mm 6 m/s 755 mmHg 90%
    09:00 +11°C° 0 mm 6 m/s 756 mmHg 90%
    10:00 +12°C° 0 mm 5 m/s 756 mmHg 89%
    11:00 +13°C° 0 mm 4 m/s 757 mmHg 88%
    12:00 +13°C° 0 mm 4 m/s 757 mmHg 87%
    13:00 +13°C° 0 mm 3 m/s 757 mmHg 86%
    14:00 +13°C° 0 mm 3 m/s 757 mmHg 86%
    15:00 +15°C° 0 mm 2 m/s 758 mmHg 86%
    16:00 +15°C° 0 mm 2 m/s 758 mmHg 86%
    17:00 +14°C° 0 mm 2 m/s 758 mmHg 87%
    18:00 +14°C° 0 mm 2 m/s 758 mmHg 87%
    19:00 +13°C° 0 mm 3 m/s 758 mmHg 88%
    20:00 +13°C° 0 mm 3 m/s 758 mmHg 87%
    21:00 +13°C° 0 mm 3 m/s 758 mmHg 86%
    22:00 +13°C° 0 mm 3 m/s 759 mmHg 84%
    23:00 +12°C° 0 mm 3 m/s 759 mmHg 86%

    18 Octobre, Vendredi

    Heure Température Précipitation Vent Pression Humidité
    00:00 +11°C° 0 mm 3 m/s 759 mmHg 88%
    01:00 +11°C° 0 mm 3 m/s 759 mmHg 90%
    02:00 +12°C° 0 mm 2 m/s 759 mmHg 90%
    03:00 +12°C° 0 mm 2 m/s 759 mmHg 91%
    04:00 +12°C° 0 mm 2 m/s 759 mmHg 91%
    05:00 +12°C° 0.1 mm 2 m/s 759 mmHg 92%
    06:00 +12°C° 0.1 mm 2 m/s 759 mmHg 92%
    07:00 +12°C° 0.1 mm 2 m/s 759 mmHg 93%
    08:00 +13°C° 0 mm 2 m/s 759 mmHg 90%
    09:00 +13°C° 0 mm 1 m/s 760 mmHg 87%
    10:00 +14°C° 0 mm 1 m/s 760 mmHg 84%
    11:00 +15°C° 0 mm 1 m/s 760 mmHg 79%
    12:00 +16°C° 0 mm 1 m/s 760 mmHg 75%
    13:00 +16°C° 0 mm 1 m/s 760 mmHg 70%
    14:00 +16°C° 0 mm 1 m/s 759 mmHg 73%
    15:00 +16°C° 0 mm 1 m/s 759 mmHg 76%
    16:00 +15°C° 0 mm 1 m/s 759 mmHg 78%
    17:00 +14°C° 0 mm 2 m/s 759 mmHg 79%
    18:00 +14°C° 0 mm 2 m/s 759 mmHg 80%
    19:00 +13°C° 0 mm 2 m/s 759 mmHg 81%
    20:00 +13°C° 0 mm 2 m/s 759 mmHg 79%
    21:00 +12°C° 0 mm 3 m/s 759 mmHg 77%
    22:00 +12°C° 0 mm 3 m/s 759 mmHg 75%
    23:00 +12°C° 0 mm 3 m/s 759 mmHg 76%

    19 Octobre, Samedi

    Heure Température Précipitation Vent Pression Humidité
    00:00 +13°C° 0 mm 3 m/s 759 mmHg 76%
    01:00 +13°C° 0 mm 3 m/s 759 mmHg 76%
    02:00 +13°C° 0 mm 3 m/s 759 mmHg 77%
    03:00 +13°C° 0 mm 3 m/s 759 mmHg 78%
    04:00 +12°C° 0 mm 3 m/s 759 mmHg 79%
    05:00 +12°C° 0 mm 3 m/s 759 mmHg 79%
    06:00 +12°C° 0 mm 3 m/s 759 mmHg 79%
    07:00 +12°C° 0 mm 3 m/s 759 mmHg 80%
    08:00 +13°C° 0 mm 4 m/s 759 mmHg 78%
    09:00 +13°C° 0 mm 4 m/s 759 mmHg 77%
    10:00 +14°C° 0 mm 4 m/s 759 mmHg 75%
    11:00 +15°C° 0 mm 4 m/s 759 mmHg 71%
    12:00 +17°C° 0 mm 4 m/s 759 mmHg 68%
    13:00 +18°C° 0 mm 4 m/s 759 mmHg 64%
    14:00 +18°C° 0 mm 4 m/s 758 mmHg 67%
    15:00 +17°C° 0 mm 3 m/s 758 mmHg 69%
    16:00 +17°C° 0 mm 3 m/s 758 mmHg 72%
    17:00 +16°C° 0 mm 3 m/s 758 mmHg 75%
    18:00 +14°C° 0 mm 3 m/s 758 mmHg 78%
    19:00 +13°C° 0 mm 3 m/s 758 mmHg 81%
    20:00 +13°C° 0 mm 3 m/s 757 mmHg 82%
    21:00 +13°C° 0 mm 3 m/s 757 mmHg 84%
    22:00 +12°C° 0 mm 3 m/s 757 mmHg 86%
    23:00 +12°C° 0 mm 3 m/s 757 mmHg 87%

    20 Octobre, Dimanche

    Heure Température Précipitation Vent Pression Humidité
    00:00 +12°C° 0 mm 3 m/s 756 mmHg 88%
    01:00 +12°C° 0 mm 3 m/s 756 mmHg 90%
    02:00 +12°C° 0 mm 3 m/s 756 mmHg 90%
    03:00 +12°C° 0 mm 3 m/s 755 mmHg 90%
    04:00 +12°C° 0 mm 4 m/s 755 mmHg 91%
    05:00 +12°C° 0 mm 4 m/s 754 mmHg 90%
    06:00 +12°C° 0 mm 4 m/s 754 mmHg 90%
    07:00 +12°C° 0 mm 4 m/s 754 mmHg 90%
    08:00 +13°C° 0 mm 5 m/s 753 mmHg 84%
    09:00 +15°C° 0 mm 5 m/s 753 mmHg 77%
    10:00 +16°C° 0 mm 5 m/s 752 mmHg 71%
    11:00 +17°C° 0 mm 5 m/s 752 mmHg 68%
    12:00 +19°C° 0 mm 5 m/s 752 mmHg 65%
    13:00 +19°C° 0 mm 5 m/s 752 mmHg 62%
    14:00 +19°C° 0 mm 5 m/s 752 mmHg 66%
    15:00 +18°C° 0 mm 4 m/s 752 mmHg 69%
    16:00 +17°C° 0 mm 4 m/s 752 mmHg 73%
    17:00 +15°C° 0 mm 4 m/s 752 mmHg 76%
    18:00 +15°C° 0 mm 4 m/s 753 mmHg 79%
    19:00 +14°C° 0 mm 4 m/s 753 mmHg 82%
    20:00 +13°C° 0 mm 4 m/s 754 mmHg 82%
    21:00 +13°C° 0 mm 3 m/s 754 mmHg 83%
    22:00 +12°C° 0 mm 3 m/s 755 mmHg 83%
    23:00 +13°C° 0 mm 2 m/s 755 mmHg 83%
    Voir plus